Weather in Katashin

Russia / Bryansk Oblast     52°35′41″N   32°09′30″E
temp.,
°C
wind,
m/s
gust,
m/s
humid.,
%
clouds,
%
prec.,
mm/h
press.,
hPa
HPBL,
m
7 may, fri
fri700:00+5wsw337449 0.0 101240
03:00+4sw22765 0.0 101212
06:00+4ssw33785 0.0 101242
09:00+10ssw576028 0.0 1012475
12:00+13ssw6949100 0.0 10121933
15:00+14ssw7952100 0.0 10112161
18:00+12sse71264100 0.1 10081335
21:00+10s71590100 3.2 1007928
8 may, sat
sat800:00+10s61295100 0.3 1006446
03:00+9ssw3798100 1.7 1005244
06:00+9w2498100 1.0 1004258
09:00+10nw338796 1.5 1004503
12:00+11w4483100 1.4 1004669
15:00+7wnw5794100 4.1 1006951
18:00+4nw91496100 4.4 1009903
21:00+6nw71284100 5.6 1011855
9 may, sun
sun900:00+4wnw7168475 0.0 1014652
03:00+2wnw6158746 0.0 1016399
06:00+2nw614870 0.0 1018419
09:00+6nw712672 0.0 10201012
12:00+10nnw710495 0.0 10221756
15:00+12nnw69445 0.0 10232269
18:00+11nnw46545 0.0 10241931
21:00+6nnw226912 0.0 102614
10 may, mon
mon1000:00+5nnw11695 0.0 102710
03:00+4nnw11689 0.0 102810
06:00+4nne11705 0.0 102910
09:00+10ene11560 0.0 1030336
12:00+14nne23445 0.0 10291207
15:00+15nne34420 0.0 10281584
18:00+15nne35550 0.0 10271303
21:00+9ne33700 0.0 102841
11 may, tue
tue1100:00+7ene34760 0.0 102854
03:00+6ne46780 0.0 102891
06:00+5ne410800 0.0 1028193
09:00+12ne69630 0.0 1027467
12:00+16ene67600 0.0 1025748
15:00+19ene67580 0.0 10241054
18:00+19ene58710 0.0 1023976
21:00+16ese5117898 0.0 1024419